Погода Кайластуй

Погода Кайластуй : погода сейчас, прогноз погоды и архив. Всё, что Вы хотите узнать о погоде Кайластуй!

Хотите узнать прогноз погоды Кайластуй? Тогда Вам сюда: Погода Кайластуй

Поиск расширенной информации на нашем сайте:

Другие новости

Новости СМИ2

Главная страница сайта

Новости сайта

03.07.2017

Напоминаем, что на нашем специализированном сайте Метеоцентр.Азия вы можете получить высокодетализированные автоматические прогнозы погоды по пунктам России, СНГ и мира в авиационном формате (включающие направление и скорость ветра, видимость, явления погоды, количество и форму облачности, нижнюю и верхнюю границу облачности).

Рекомендуем: Подробная информация игровая детская площадка тут.

Погода Кайластуй - сегодня

Время (UTC), дата Ветер
(°,м/с) 
Видим.   Явления Облачность Т
(°С)
Тd
(°С)
f(%) Тe
(°С)
Pmin
(гПа)
dP
(гПа)
Po
(мм)
O2
(г/м3)
Тmin Tmax R s Состояние
почвы
12 15.09.17 310 (СЗ) 20000 м    10/0 верхняя 
[Cs]
+15.7 +11.3 75 +21  1009.7  -0.6  710  268    +23.5       
15 15.09.17 040 (СВ) 20000 м    3/0 верхняя 
[Ci fib]
+12.1 +10.1 88 +14  1009.3  -1.1  710  272           
18 15.09.17 170 (Ю) 20000 м    10/0 средняя 
[As op]
+12 +10.1 88 +15  1009.5  0.2  710  272           
21 15.09.17 040 (СВ) 20000 м    10/0 средняя 
[As op]
+11.1 +9.7 91 +14  1007.8  -1.8  708  272           
03 16.09.17 040 (СВ) 20000 м    10/3 1000 м средняя 
[Cu med, cong|As trans]
+16.8 +10.8 68 +20  1006.5  -0.5  708  267           
06 16.09.17 010 (С) 20000 м    10/3 600 м кучево-дожд., средняя 
[Cb calv|As trans]
+17.6 +10.8 64 +21  1005.4  -0.8  708  266           
09 16.09.17 360 (С) 20000 м    10/0 средняя 
[As op]
+16 +10.5 70 +20  1006.8  708  268           
15 16.09.17 330 (СЗ) 20000 м    ясно 
+9.9 +8.3 90 +9  1009.5  -0.2  709  274           
18 16.09.17 060 (СВ) 20000 м    ясно 
+7.2 +4.4 82 +8  1010.2  709  278           
21 16.09.17 тихо ()   20000 м  местами туман поземный  1/0 верхняя 
[Ci sp]
+3.4 +3.2 99 +3  1011.3  0.2  709  282           
03 17.09.17 220 (ЮЗ) 20000 м    ясно 
+19.2 +2.4 33 +20  1006.8  -1.1  709  266           
06 17.09.17 270 (З) 20000 м    ясно 
+22.1 +3.7 30 +22  1004.1  -2  707  263           
09 17.09.17 300 (СЗ) 20000 м    ясно 
+21.6 +5.3 35 +22  1003.1  -0.9  707  263           
12 17.09.17 340 (С) 20000 м    ясно 
+13.2 +6.8 65 +13  1005  707  270    +22.4       
15 17.09.17 тихо ()   20000 м    ясно 
+7.1 +4.9 86 +7  1005.5  -0.8  706  276           
18 17.09.17 тихо ()   20000 м    ясно 
+4.2 +2.9 91 +4  1005.3  -0.9  705  279           
21 17.09.17 070 (В) 20000 м    ясно 
+3.3 +2.8 97 +4  1005  -0.4  705  280           
03 18.09.17 240 (ЮЗ) 20000 м    3/0 средняя 
[Ac cast]
+18.9 +8.1 49 +19  999.3  -1.7  704  264           
15 18.09.17 330 (СЗ) 20000 м    6/6 600 м 
[Sc]
+10.2 +6.7 79 +9  1004.4  0.4  706  273           
18 18.09.17 330 (СЗ) 20000 м    6/6 600 м 
[Sc]
+10.5 +8.6 88 +11  1005.2  0.4  706  272           
21 18.09.17 350 (С) 5{10}  20000 м  {дождь}  10/6 300 м средняя 
[Frnb|As op]
+10.1 +7.9 86 +9  1006.9  1.5  707  273           
00 19.09.17 360 (С) 7-10{10}  20000 м    8/0 средняя 
[Ac lent]
+11.8 +7.5 75 +10  1008.8  2.1  709  273  +9.6        сухая 
03 19.09.17 010 (С) 3{10}  20000 м    9/9 600 м 
[Sc]
+14.5 +8 65 +15  1009.8  1.5  710  270           
06 19.09.17 240 (ЮЗ) 20000 м    9/9 1000 м 
[Cu med, cong]
+17 +7.7 54 +17  1009  -0.2  710  268           
09 19.09.17 330 (СЗ) 20000 м    1/1 1000 м 
[Cu hum]
+18.5 +5.1 41 +19  1008.9  0.2  710  267           
Время (UTC), дата Ветер
(°,м/с) 
Видим.   Явления Облачность Т
(°С)
Тd
(°С)
f(%) Тe
(°С)
Pmin
(гПа)
dP
(гПа)
Po
(мм)
O2
(г/м3)
Тmin Tmax R s Состояние
почвы

Для получения пояснительной информации подведите курсор к названию столбца.

ПОГОДА Кайластуй - архив

Всё, что Вы хотите узнать о погоде Кайластуй - удобно и подробно!

Выберите нужную дату (начиная с 1 января 2015* года) и нажмите кнопку "Найти".
Будут отображены архивные сводки погоды по пункту Кайластуй, начиная с указанной даты.


Отображать данные в формате CSV (для использования в таблицах Excel)


Внимание! Наш архив погоды предназначен исключительно для личного некоммерческого использования в познавательных целях. Если Вам необходимы официальные справки о состоянии погоды (для производственных, юридических, коммерческих и т.п. целей), обращайтесь в органы Росгидромета.

*Примечание: данная дата относится к архиву по метеостанциям СССР (Россия, СНГ, Балтия).
Архив по метеостанциям Зарубежной Европы и Азии (кроме Китая) хранится 10 дней, по другим регионам земного шара (Китай, Африка, Америка, Австралия, Океания) - 1 день.

Кайластуй - район местоположения метеостанции


Название, широта, долгота, высота метеостанции:
Кайластуй 49.8°ш. 118.4°д. 550 м над ур. моря [Российская Федерация]

Дополнительная информация

В oтличие oт бoльшинства пoгoдных сайтoв мы публикуем пoдрoбную метеoинфoрмацию в детальнoм прoфессиoнальнoм фoрмате.

Характеристики температуры и влажнoсти вoздуха измеряются на высoте 2 м в тени вдали oт зданий и деревьев.
Скoрoсть ветра измеряется на высoте 10 м (на урoвне рoста челoвека скoрoсть ветра ниже в 1.5-2 раза). Если метеoстанция нахoдится в гoрoде или в лесу, тo скoрoсть ветра занижена на 2-4 м/с пo сравнению с oткрытым местoм. Скoрoсть ветра над акватoриями крупных рек и oзёр, а также на вершинах хoлмoв на 2-5 м/с выше, чем в oбычных услoвиях.
Атмoсфернoе давление в разных тoчках местнoсти мoжет значительнo oтличаться oт давления на метеoстанции, в зависимoсти oт услoвий рельефа (при пoдъёме на 10 м давление пoнижается примернo на 1 мм рт.ст.).